Jackpot

Texas Poker Multi Jackpot System

Kini Telah hadir Jackpot SUPER ROYAL FLUSH

Kini Telah hadir Jackpot 2000 (khusus table VIP keatas).

Ikutilah global jackpot yang tersedia di system kami, dengan system jackpot terbaru dan pertama di indonesia, anda dapat membeli jackpot dengan harga 100 rupiah saja dan menangkan hadiahnya hingga puluhan juta rupiah.

Jackpot bukanlah suatu keharusan untuk dibeli, namun kami memberikan suatu fitur tambahan untuk member tercinta dari www.unyilpoker.com.

Terdapat tiga pilihan harga jackpot yang bisa anda beli yaitu :100,500,1000 dan 2000(khusus table VIP Keatas) rupiah.

Hadiah dari Multi jackpot system www.unyilpoker.com

  1. full house x 10 harga jackpot yang anda beli.
      (contoh:anda membeli 1000 maka:1000 X10 = 10.000)
  2. four of kind x 250 harga jackpot yang anda beli
      (contoh:anda membeli 1000 maka:1000 X250 = 250.000)
  3. Straight flush x 1200
      (contoh:anda membeli 1000 maka:1000 X1200 = 1.200.000)
  4. Royal flush x 10000 harga jackpot yang anda beli
      (contoh:anda membeli 1000 maka:1000 X10000 = 10.000.000)
  5. SUPER ROYAL FLUSH x 30000 harga jackpot yang anda beli
      (contoh:anda membeli 1000 maka:1000 X30000 = 30.000.000)

Kondisi kartu

  1. full house adalah kondisi kartu dimana kartu anda dan kartu tengah dengan total 7 kartu bisa mendapatkan nilai 5 kartu dengan kombinasi 1 tris(three of kind) dan 1 pair, contoh 3 kartu 10 dan 2 kartu 5
  2. Four of kind adalah kondisi kartu dimana kartu anda dan kartu tengah dengan total 7 kartu bisa mendapatkan nilai 5 kartu dengan kombinasi 4 kartu yang sama jumlah dan 1 kartu apapun juga contoh anda mendapatkan 4 buah kartu angka 3 dan 1 kartu apapun.
  3. Staright flush adalah kondisi kartu dimana kartu anda dan kartu tengah dengan total 7 kartu bisa mendapatkan nilai 5 kartu dengan kombinasi seri / staright dengan kembang yang sama contoh : urutan kartu dari angka 5, 6, 7, 8 , 9 10 dengan kembang yg sama misalnya as hati
  4. Royal flush adalah kondisi kartu dimana kartu anda dan kartu tengah dengan total 7 kartu bisa mendapatkan nilai 5 kartu dengan kombinasi seri / staright dengan kembang yang sama tetapi kartu tersebut haruslah dimulai dari 10. contoh 10, Queen, Jack, King dan aces dengan kembang yang sama
  5. Super Royal flush adalah kondisi kartu dimana Kedua kartu anda digabung dengan 3 kartu pertama meja haruslah royal flush. contoh kartu anda 10,Queen kembang sama dan 3 kartu pertama meja adalah Jack, King dan aces dengan kembang yang sama

Demikian adalah penjelasan dari Multi Jackpot www.unyilpoker.com terima kasih dan selamat bermain salam hoki dari kami

Texas Poker Jackpot Winner

TOP SUPER ROYAL FLUSH
No.TanggalNamaPriceWin
118/08 14:54LASTFAST33Super Royal flush15,000,000
218/08 10:17GODSICKSuper Royal flush15,000,000
318/08 04:09MENANG4292Super Royal flush60,000,000
418/08 00:46DUWITSuper Royal flush30,000,000
517/08 20:35B24C7AF2Super Royal flush1,500,000
TOP ROYAL FLUSH
No.TanggalNamaPriceWin
118/08 19:08ARAS_99Royal flush5,000,000
218/08 19:06PERANG01Royal flush2,000,000
318/08 19:06BOX5000Royal flush2,000,000
418/08 19:04MAROEL07Royal flush2,000,000
518/08 18:54KARNO99Royal flush20,000,000
TOP STRAIGHT FLUSH
No.TanggalNamaPriceWin
118/08 19:18DTSMIXINGStraight Flush120,000
218/08 19:18ARSYAD88Straight Flush600,000
318/08 19:16KORAMIL_86Straight Flush600,000
418/08 19:15DASUH99Straight Flush600,000
518/08 19:10F5928FE5Straight Flush240,000
LATEST JACKPOT
No.TanggalNamaPriceWin
118/08 19:18BUTO250125Full House5,000
218/08 19:18DENJAKA99Full House10,000
318/08 19:18YOGACUKIAFull House2,000
418/08 19:18DWI8812Full House2,000
518/08 19:18IKEIRMA01Full House5,000
618/08 19:18NEWSPEEDFull House5,000
718/08 19:18JAM_0058Four Of A Kind125,000
818/08 19:18THEPIRITFull House10,000
918/08 19:18GRUNGEGROUPFull House10,000
1018/08 19:18MIYAKE77Full House2,000
1118/08 19:18GUM0REAK87Full House2,000
1218/08 19:18ZYLONK82Full House5,000
1318/08 19:18ZIGAR55Full House2,000
1418/08 19:18MALAMSFull House1,000
1518/08 19:18TEMPOK000Full House5,000
1618/08 19:18BUDIKO99Four Of A Kind125,000
1718/08 19:18GAZ07Full House5,000
1818/08 19:18YONGKI1212Full House5,000
1918/08 19:184KM4LFull House2,000
2018/08 19:18SUDIRMAN27Full House2,000
2118/08 19:18ECAEBELLFull House20,000
2218/08 19:18RUDICUYFull House5,000
2318/08 19:18HAJARSAJAFull House10,000
2418/08 19:18TM4Full House2,000
2518/08 19:18DTSMIXINGStraight Flush120,000
2618/08 19:18Q1L4Full House5,000
2718/08 19:18JABOTAJAFull House2,000
2818/08 19:18IYAS22Full House2,000
2918/08 19:18LELE0490Full House5,000
3018/08 19:18AMARTHA77Full House5,000
3118/08 19:18RENDALFAFour Of A Kind50,000
3218/08 19:18JONE19Full House1,000
3318/08 19:18CHAN1AGO01Full House2,000
3418/08 19:18ARSYAD88Straight Flush600,000
3518/08 19:18IDK888352Full House10,000
3618/08 19:18BONGOH799Four Of A Kind250,000
3718/08 19:18CZPD5CQS8GFull House5,000
3818/08 19:18TATAWFull House2,000
3918/08 19:18W4LUUY0Full House2,000
4018/08 19:18JERINX7799Full House1,000
4118/08 19:18BIAN17Full House20,000
4218/08 19:18JHON_112Full House5,000
4318/08 19:18JOLEMBUNGFull House20,000
4418/08 19:18MP4DDOMBA555Full House1,000
4518/08 19:18TAMI339Full House1,000
4618/08 19:18GV0QT6JPQDFull House2,000
4718/08 19:18NOSEKFour Of A Kind25,000
4818/08 19:17AZUALA99Full House10,000
4918/08 19:17GAMSIR8899Full House2,000
5018/08 19:17MASABENGFull House5,000

Domino Multi Jackpot System

Ikutilah global jackpot yang tersedia di system kami, dengan system jackpot terbaru dan pertama di indonesia, anda dapat membeli jackpot dengan harga 100 rupiah saja dan menangkan hadiahnya hingga puluhan juta rupiah.

Jackpot bukanlah suatu keharusan untuk dibeli, namun kami memberikan suatu fitur tambahan untuk member tercinta dari www.unyilpoker.com.

Terdapat tiga pilihan harga jackpot yang bisa anda beli yaitu :100,500 dan 1000 rupiah.

Hadiah dari Multi jackpot system www.unyilpoker.com

  1. Murni Kecil x 50 harga jackpot yang anda beli.
      (contoh:anda membeli 1000 maka:1000 X 50 = 50.000)
  2. Murni Besar x 50 harga jackpot yang anda beli
      (contoh:anda membeli 1000 maka:1000 X 50 = 50.000)
  3. BALAK x 100 harga jackpot yang anda beli
      (contoh:anda membeli 1000 maka:1000 X 100 = 100.000)
  4. ENAM DEWA x 6666 harga jackpot yang anda beli
      (contoh:anda membeli 1000 maka:1000 X 6666 = 6.666.000)

Demikian adalah penjelasan dari Multi Jackpot www.unyilpoker.com terima kasih dan selamat bermain salam hoki dari kami

Domino Jackpot Winner

TOP ENAM DEWA
No.TanggalNamaPriceWin
118/08 18:58ANOM78murni enam3,333,000
218/08 18:25DOBOLL9murni enam666,600
318/08 16:59E_M_M_4murni enam6,666,000
418/08 16:30DM82997murni enam3,333,000
518/08 15:25GILSAP21murni enam6,666,000
TOP BALAK
No.TanggalNamaPriceWin
118/08 19:18BEDJO121balak50,000
218/08 19:16HABIBI02balak100,000
318/08 19:16HONK89balak100,000
418/08 19:09BOSTAJIbalak100,000
518/08 19:07MAMAH296balak50,000
LATEST JACKPOT
No.TanggalNamaPriceWin
118/08 19:18ONEONE13murni kecil50,000
218/08 19:18BEDJO121balak50,000
318/08 19:17INDAHNYA22murni besar25,000
418/08 19:17QNET987murni kecil25,000
518/08 19:17T4DACOGLENS05murni kecil50,000
618/08 19:17APDHIEmurni kecil50,000
718/08 19:17AYA_MANGmurni besar50,000
818/08 19:16HABIBI02balak100,000
918/08 19:16LONTOP09murni kecil50,000
1018/08 19:16HONK89balak100,000
1118/08 19:15MASJID1980murni besar5,000
1218/08 19:15WIJA14murni besar25,000
1318/08 19:15MBREGEDETZmurni kecil5,000
1418/08 19:15GILANG845murni kecil25,000
1518/08 19:14DAPOLINKmurni kecil25,000
1618/08 19:14BUSET41murni kecil50,000
1718/08 19:13AMPEANmurni besar50,000
1818/08 19:12LB997838murni besar25,000
1918/08 19:12HONK89murni kecil50,000
2018/08 19:11MBAHSEMARmurni kecil50,000
2118/08 19:11KOTOK112murni kecil25,000
2218/08 19:10A61C18B8murni kecil50,000
2318/08 19:10KOBE6000lucky9910,000
2418/08 19:09BOSTAJIbalak100,000
2518/08 19:09SOMPREETmurni besar50,000
2618/08 19:09TARIMUS2murni besar5,000
2718/08 19:09SAWEDmurni kecil25,000
2818/08 19:09X6X6X6murni kecil50,000
2918/08 19:08BANGMUL77murni besar25,000
3018/08 19:08DARKZLIU91murni besar50,000
3118/08 19:08MAMAT_99murni kecil50,000
3218/08 19:08DOCTER10murni kecil50,000
3318/08 19:08W1ND0W5murni besar5,000
3418/08 19:07ROMI002murni kecil25,000
3518/08 19:07ANGGIE44murni kecil50,000
3618/08 19:07BETANCORmurni kecil25,000
3718/08 19:07MAMAH296balak50,000
3818/08 19:07ZAZ002murni besar50,000
3918/08 19:06BUNK69balak100,000
4018/08 19:06S4STR4_81murni kecil50,000
4118/08 19:06RIKI17balak100,000
4218/08 19:05BUSET41lucky9925,000
4318/08 19:05DADAN123lucky992,500
4418/08 19:05MBAHSEMARbalak100,000
4518/08 19:04LUPOOmurni besar50,000
4618/08 19:04IRSAD1111murni kecil50,000
4718/08 19:04GOTRIEmurni besar25,000
4818/08 19:04FERDY182murni kecil25,000
4918/08 19:04ASKADILAmurni besar50,000
5018/08 19:04RAKENJOGmurni besar5,000

Ceme Multi Jackpot System

Jackpot dilihat dari gabungan kartu pemain dengan kartu bandar. Bandar harus membeli jackpot sebanyak jumlah player yang sedang duduk. Sebagai contoh bila terdapat 3 pemain duduk bermain, dan bandar memutuskan untuk membeli jackpot Rp 1.000, maka pada periode tersebut bandar akan membeli jackpot sebanyak 3xRp1.000 = Rp3.000.

Jackpot bukanlah suatu keharusan untuk dibeli, namun kami memberikan suatu fitur tambahan untuk member tercinta dari www.unyilpoker.com.

Terdapat tiga pilihan harga jackpot yang bisa anda beli yaitu :100,500 dan 1000 rupiah.

Hadiah dari Multi jackpot system www.unyilpoker.com

  1. Murni Kecil x 50 harga jackpot yang anda beli.
      (contoh:anda membeli 1000 maka:1000 X 50 = 50.000)
  2. Murni Besar x 50 harga jackpot yang anda beli
      (contoh:anda membeli 1000 maka:1000 X 50 = 50.000)
  3. BALAK x 200 harga jackpot yang anda beli
      (contoh:anda membeli 1000 maka:1000 X 200 = 200.000)
  4. ENAM DEWA x 6666 harga jackpot yang anda beli
      (contoh:anda membeli 1000 maka:1000 X 6666 = 6.666.000)

Demikian adalah penjelasan dari Multi Jackpot www.unyilpoker.com terima kasih dan selamat bermain salam hoki dari kami

Ceme Jackpot Winner

TOP ENAM DEWA
No.TanggalNamaPriceWin
118/08 19:16JONHHOKI99murni enam6,666,000
218/08 19:10SUCTIONmurni enam6,666,000
318/08 19:06KYUKYU26murni enam6,666,000
418/08 19:03MURAD888murni enam6,666,000
518/08 19:03PGENKEMALLmurni enam3,333,000
TOP BALAK
No.TanggalNamaPriceWin
118/08 19:18ANDRISF88balak200,000
218/08 19:18JIMUSbalak100,000
318/08 19:17MANPARE7balak200,000
418/08 19:17MMUTAKTIFbalak200,000
518/08 19:17BPOKER83balak100,000
LATEST JACKPOT
No.TanggalNamaPriceWin
118/08 19:18MASRIJALmurni kecil25,000
218/08 19:18LODES_BOSmurni kecil50,000
318/08 19:18D2N234murni kecil50,000
418/08 19:18KENJIRO12murni kecil5,000
518/08 19:18OLAB234murni besar50,000
618/08 19:18GUSTINEWmurni kecil50,000
718/08 19:18ABDYA_88murni kecil5,000
818/08 19:18GOCENG99murni besar50,000
918/08 19:18UCAMP88murni kecil50,000
1018/08 19:18OZHA89murni kecil25,000
1118/08 19:18BEBAS01murni besar50,000
1218/08 19:18THUJU272murni besar5,000
1318/08 19:18BEBAS01murni besar50,000
1418/08 19:18CHODRATmurni besar5,000
1518/08 19:18ICILmurni kecil25,000
1618/08 19:18MAY77murni kecil5,000
1718/08 19:18BONEN_YEmurni kecil25,000
1818/08 19:18BUAYO42murni besar25,000
1918/08 19:18ANDRISF88balak200,000
2018/08 19:18JIMUSbalak100,000
2118/08 19:17MANPARE7balak200,000
2218/08 19:17MMUTAKTIFbalak200,000
2318/08 19:17PUTAU99murni kecil5,000
2418/08 19:17PIRIYOmurni besar50,000
2518/08 19:17ENDI983murni besar25,000
2618/08 19:17DASRILARImurni kecil50,000
2718/08 19:17KINGARENA9murni besar25,000
2818/08 19:17JOYA17murni kecil50,000
2918/08 19:17MANOWARmurni besar50,000
3018/08 19:17BPOKER83balak100,000
3118/08 19:17FI6HTER06murni besar25,000
3218/08 19:16UCAMP88murni kecil50,000
3318/08 19:16FITRA123murni kecil5,000
3418/08 19:16RANDYKECHImurni kecil50,000
3518/08 19:16BAIM80murni kecil5,000
3618/08 19:16BATAKTOLmurni besar50,000
3718/08 19:16FBT57murni besar50,000
3818/08 19:16IRW4N0murni besar50,000
3918/08 19:16AKIGNSmurni besar50,000
4018/08 19:16LODES_BOSmurni kecil50,000
4118/08 19:16HELZImurni kecil25,000
4218/08 19:16ANJULAJAmurni kecil50,000
4318/08 19:16SEP92murni kecil25,000
4418/08 19:16TOKIK77murni besar5,000
4518/08 19:16JONHHOKI99murni enam6,666,000
4618/08 19:16JOKKO99murni besar25,000
4718/08 19:16JAYAQQ13murni besar50,000
4818/08 19:16BP888091murni besar25,000
4918/08 19:16RAMSES51murni besar50,000
5018/08 19:15SEP92murni besar25,000